Location: Hylvaty SDH
(49.9612°N, 16.4057°E)
Time: 03:34:29
(UTC+01:00)

Vanguard 2 - All Passes

Search period start: 25 January 2020 00:00
Search period end: 04 February 2020 00:00
Orbit: 553 x 2938 km, 32.9° (Epoch: 24 January)

Date Brightness Start Highest point End Pass type
(mag) Time Alt. Az. Time Alt. Az. Time Alt. Az.
25 Jan - 10:34:04 10° SSW 10:42:18 20° SSE 10:48:25 10° ESE daylight
25 Jan - 12:43:21 10° SW 12:50:39 23° S 12:55:52 10° SE daylight
25 Jan - 14:54:53 10° SW 14:58:00 13° SSW 15:00:38 10° S daylight
26 Jan - 08:44:30 10° S 08:50:59 14° SSE 08:56:27 10° SE daylight
26 Jan - 10:50:43 10° SW 10:59:56 24° S 11:06:31 10° ESE daylight
26 Jan - 13:00:53 10° WSW 13:08:12 23° SSW 13:13:24 10° SE daylight
26 Jan - 15:13:58 10° SW 15:15:19 11° SSW 15:16:35 10° SSW daylight
27 Jan - 08:59:41 10° SSW 09:08:35 19° SSE 09:15:37 10° ESE daylight
27 Jan - 11:07:44 10° SW 11:17:34 27° S 11:24:25 10° ESE daylight
27 Jan - 13:18:36 10° WSW 13:25:42 22° SSW 13:30:47 10° SSE daylight
28 Jan - 07:14:30 10° SSE 07:17:00 11° SE 07:19:24 10° SE daylight
28 Jan - 09:15:43 10° SSW 09:26:12 23° SSE 09:34:06 10° ESE daylight
28 Jan - 11:24:59 10° SW 11:35:11 28° S 11:42:09 10° SE daylight
28 Jan - 13:36:29 10° WSW 13:43:07 20° SSW 13:47:59 10° SSE daylight
29 Jan - 07:26:44 10° S 07:34:29 15° SSE 07:41:13 10° ESE daylight
29 Jan - 09:32:15 10° SW 09:43:49 27° SSE 09:52:15 10° ESE daylight
29 Jan - 11:42:26 10° WSW 11:52:45 29° S 11:59:45 10° SE daylight
29 Jan - 13:54:35 10° WSW 14:00:28 18° SSW 14:04:56 10° SSE daylight
30 Jan - 07:41:42 10° S 07:52:00 20° SSE 08:00:30 10° ESE daylight
30 Jan - 09:49:09 10° SW 10:01:26 30° S 10:10:11 10° ESE daylight
30 Jan - 12:00:03 10° WSW 12:10:17 29° SSW 12:17:14 10° SE daylight
30 Jan - 14:13:03 10° WSW 14:17:43 15° SW 14:21:28 10° S daylight
31 Jan - 07:57:32 10° SSW 08:09:31 24° SSE 08:19:05 10° ESE daylight
31 Jan - 10:06:19 10° SW 10:19:03 33° S 10:27:57 10° ESE daylight
31 Jan - 12:17:49 10° WSW 12:27:45 28° SSW 12:34:35 10° SE daylight
31 Jan - 14:32:25 10° SW 14:34:52 11° SW 14:37:05 10° SSW daylight
01 Feb - 06:09:47 10° S 06:17:36 15° SE 06:24:46 10° ESE visible
01 Feb - 08:13:55 10° SSW 08:27:05 29° SSE 08:37:18 10° ESE daylight
01 Feb - 10:23:41 10° WSW 10:36:38 34° S 10:45:37 10° ESE daylight
01 Feb - 12:35:43 10° WSW 12:45:08 25° SSW 12:51:46 10° SSE daylight
02 Feb - 06:24:20 10° S 06:34:58 20° SSE 06:44:26 10° ESE visible
02 Feb - 08:30:41 10° SW 08:44:39 33° SSE 08:55:18 10° ESE daylight
02 Feb - 10:41:12 10° WSW 10:54:12 35° S 11:03:10 10° SE daylight
02 Feb - 12:53:49 10° WSW 13:02:26 22° SSW 13:08:42 10° SSE daylight
03 Feb - 06:39:55 10° SSW 06:52:23 24° SSE 07:03:13 10° ESE visible
03 Feb - 08:47:44 10° SW 09:02:14 36° S 09:13:08 10° ESE daylight
03 Feb - 10:58:53 10° WSW 11:11:43 34° SSW 11:20:36 10° SE daylight
03 Feb - 13:12:12 10° WSW 13:19:38 19° SW 13:25:20 10° S daylight
